Regional Weather Roundup
Issued by NWS Charleston, SC

Current Version | Previous Version | Graphics & Text | Print | Product List | Glossary On
Versions: 1 2 3 4 5 6 7 8 9 10 11 12 13 14 15 16 17 18 19 20 21 22 23 24 25 26 27 28 29 30 31 32 33 34 35 36 37 38 39 40 41 42 43 44 45 46 47 48 49 50
000
ASUS42 KCHS 271327
RWRCHS

REGIONAL WEATHER ROUNDUP
NATIONAL WEATHER SERVICE CHARLESTON SC
900 AM EDT THU AUG 27 2015

NOTE: "FAIR" INDICATES FEW OR NO CLOUDS BELOW 12,000 FEET WITH NO
SIGNIFICANT WEATHER AND/OR OBSTRUCTIONS TO VISIBILITY.

NOT ALL STATIONS ARE QUALITY CONTROLLED BY THE NATIONAL
WEATHER SERVICE. USE DATA WITH CAUTION...ESPECIALLY
DEWPOINT OBSERVATIONS.

SCZ027-030-031-034>040-042>050-271400-
...SOUTHEAST SOUTH CAROLINA...

CITY           SKY/WX    TMP DP  RH WIND       PRES   REMARKS
N CHARLESTON   PTSUNNY   75  69  81 N7        29.96R
WATERFRONT PRK   N/A     77  74  91 VRB2      29.93R
MOUNT PLEASANT FAIR      72  72 100 N6        29.98R
JOHNS ISLAND   FAIR      77  75  94 N5        29.97R
PINOPOLIS        N/A     75  72  88 NE8       29.91R
MONCKS CORNER  FAIR      77  70  78 NE5       29.99R
SUMMERVILLE    FAIR      73  72  94 N6        29.99S
BEAUFORT MCAS  PTSUNNY   82  75  79 CALM      29.97R
BEAUFORT ARPT  FAIR      81  75  83 SE3       29.95R
HILTON HEAD IS MOSUNNY   81  73  78 NE7       29.96R
WALTERBORO     MOSUNNY   79  72  78 N7        29.99R
ALLENDALE      FAIR      75  72  88 N7        29.98R

...SOUTHERN MIDLANDS AND PEE DEE...

CITY           SKY/WX    TMP DP  RH WIND       PRES   REMARKS
GEORGETOWN     NOT AVBL
KINGSTREE      NOT AVBL
ORANGEBURG     CLOUDY    74  69  85 NE8       30.00R
BARNWELL       CLOUDY    75  72  88 NE10      30.01R
AIKEN          CLOUDY    70  66  88 NE9       30.06R
MANNING        CLOUDY    72  70  94 N3        30.00R
COLUMBIA       CLOUDY    76  67  73 NE8       30.01R
SUMTER         PTSUNNY   73  68  83 NE14      29.99S
FLORENCE       PTSUNNY   74  69  85 NE10      30.01R
MYRTLE BEACH   CLOUDY    73  68  83 NE6       30.02R
N MYRTLE BEACH CLOUDY    73  71  93 NE7       30.00R

$$

GAZ063-065-086>088-099>101-113>116-118-119-134>141-150-271400-
...SOUTHEAST GEORGIA...

CITY           SKY/WX    TMP DP  RH WIND       PRES   REMARKS
SAVANNAH ARPT  CLOUDY    76  72  87 NE8       29.96R
HUNTER AAF     LGT RAIN  79  77  94 NE5       29.94R
FORT STEWART   PTSUNNY   74  69  85 CALM      29.93R
STATESBORO     SUNNY     75  75 100 NE5       29.97R
SYLVANIA       MOSUNNY   78  75  90 MISG      29.99R
CLAXTON        NOT AVBL

...CSRA...CENTRAL AND FAR SOUTHEAST GEORGIA...

CITY           SKY/WX    TMP DP  RH WIND       PRES   REMARKS
THOMSON        CLOUDY    74  71  88 NE10      30.06R
AUGUSTA-BUSH   CLOUDY    73  69  87 NE5       30.00R
AUGUSTA-DANIEL CLOUDY    73  68  84 NE12      30.01R
SWAINSBORO     FAIR      77  75  94 NE8       29.99R
VIDALIA        SUNNY     73  70  88 NE3       29.98R
EASTMAN        FAIR      71  71 100 CALM      30.00R
HAZLEHURST     FAIR      75  68  77 CALM      29.96R
ALMA           SUNNY     75  65  70 N5        29.95S
WAYCROSS       SUNNY     79  70  73 NE5       29.95R
JESUP          CLOUDY    77  70  78 E3        29.96R
BAXLEY         FAIR      77  66  69 NE5       29.96R
BRUNSWICK      SUNNY     79  72  78 W3        29.96R
SAINT SIMONS   SUNNY     78  71  79 SW5       29.94R

$$

SCZ027-028-034-036>038-045-046-048>050-GAZ119-141-271400-
...LAKE AND SUPPLEMENTAL COASTAL OBSERVATIONS...

STATION/POSITION TIME  TEMP    WIND        PRES    WAVE   SWELL
                       AIR SEA DIR/SP/G            HT/PER HT/PER/DIR
                 (UTC) (F)     (DEG/KT/KT) (MB)    (FT/S) (FT/S/D)
UPR LAKE MARION  NOT AVBL
WINYAH BAY       1200   73     360/  5     1014.0R
LAKE MURRAY      1200   71      10/  3/  5 1015.9R
ACE BASIN NERRS  NOT AVBL
FORT PULASKI     1200   80 86   50/  7/  8 1014.1R
SAPELO ISLAND    1300   79     260/  2     1014.0S

$$

ANZ835-935-AMZ111-154-330-350-352-354-370-450-454-472-271400-
...C-MAN AND BUOY OBSERVATIONS...

STATION/POSITION TIME  TEMP    WIND        PRES    WAVE   SWELL
                       AIR SEA DIR/SP/G            HT/PER HT/PER/DIR
                 (UTC) (F)     (DEG/KT/KT) (MB)    (FT/S) (FT/S/D)
BUOY 41004       1250   81 84  140/ 14/ 17 1013.4R   2/10   2/10
BUOY 41008       1250   81 85  230/  6/  8 1014.3R   2/11   2/120/11
FOLLY BEACH CMAN 1300   80     120/  6/  7 1014.6R
CAPERS NEARSHORE 1208   79     110/  6/ 10 1014.1R
FRIPP NEARSHORE  NOT AVBL


STATION/POSITION TIME  TEMP    WIND        PRES    WAVE   SWELL
                       AIR SEA DIR/SP/G            HT/PER HT/PER/DIR
                 (UTC) (F)     (DEG/KT/KT) (MB)    (FT/S) (FT/S/D)
5E ST. MARYS GA  1221      85                N/A     2/11   2/100/11
FRYING PAN BUOY  1250   81 81  130/  8/ 10 1015.3R
BUOY 41025       1250   81 82   80/ 12/ 14 1015.2F   4/11   3/120/11
CAPE LOOKOUT NC  1300   76      20/ 11/ 14 1015.6R
BUOY 41002       1250   76 84  270/ 14/ 17 1016.0R   4/10   3/130/10
BUOY 41010       1220   81 85  220/  8/  8 1014.9R
ST AUGUSTINE FL  1300   80 84  210/  3/  4 1014.9R


$$


USA.gov is the U.S. government's official web portal to all federal, state and local government web resources and services.